Location: Dehesa de la Cepeda
(40.6574°N, 4.3013°W)
Time: 03:55:06
(UTC+00:00)

Courier 1B - All Passes

Search period start: 01 August 2021 00:00
Search period end: 11 August 2021 00:00
Orbit: 962 x 1209 km, 28.3° (Epoch: 31 July)

Date Brightness Start Highest point End Pass type
(mag) Time Alt. Az. Time Alt. Az. Time Alt. Az.
01 Aug - 18:40:41 10° SSW 18:46:35 23° SSE 18:52:25 10° ESE daylight
01 Aug - 20:33:18 10° WSW 20:40:02 32° S 20:46:32 10° ESE visible
01 Aug - 22:27:16 10° WSW 22:33:29 27° SSW 22:39:26 10° SE visible
02 Aug - 00:23:08 10° SW 00:26:35 14° SSW 00:29:56 10° S visible
02 Aug - 17:47:32 10° SSW 17:52:52 20° SSE 17:58:13 10° ESE daylight
02 Aug - 19:39:36 10° SW 19:46:17 31° S 19:52:49 10° ESE daylight
02 Aug - 21:33:14 10° WSW 21:39:47 30° S 21:46:05 10° SE visible
02 Aug - 23:28:15 10° WSW 23:33:01 18° SSW 23:37:37 10° SSE visible
03 Aug - 16:54:46 10° S 16:59:13 16° SSE 17:03:41 10° ESE daylight
03 Aug - 18:46:00 10° SW 18:52:31 29° S 18:58:59 10° ESE daylight
03 Aug - 20:39:18 10° WSW 20:46:02 32° S 20:52:36 10° SE visible
03 Aug - 22:33:49 10° WSW 22:39:23 22° SSW 22:44:48 10° SSE visible
04 Aug - 16:02:41 10° S 16:05:35 12° SSE 16:08:31 10° SE daylight
04 Aug - 17:52:34 10° SW 17:58:46 26° SSE 18:05:00 10° ESE daylight
04 Aug - 19:45:28 10° WSW 19:52:16 33° S 19:58:58 10° ESE visible
04 Aug - 21:39:35 10° WSW 21:45:44 26° SSW 21:51:41 10° SE visible
04 Aug - 23:36:25 10° SW 23:38:49 12° SSW 23:41:11 10° S visible
05 Aug - 16:59:20 10° SSW 17:05:03 23° SSE 17:10:51 10° ESE daylight
05 Aug - 18:51:44 10° SW 18:58:29 32° S 19:05:14 10° ESE daylight
05 Aug - 20:45:31 10° WSW 20:52:01 29° SSW 20:58:23 10° SE visible
05 Aug - 22:40:59 10° WSW 22:45:14 16° SSW 22:49:23 10° S visible
06 Aug - 16:06:22 10° SSW 16:11:23 19° SSE 16:16:29 10° ESE daylight
06 Aug - 17:58:06 10° SW 18:04:43 31° S 18:11:23 10° ESE daylight
06 Aug - 19:51:34 10° WSW 19:58:15 31° S 20:04:53 10° SE visible
06 Aug - 21:46:21 10° WSW 21:51:37 20° SSW 21:56:46 10° SSE visible
07 Aug - 15:13:50 10° S 15:17:46 15° SSE 15:21:45 10° ESE daylight
07 Aug - 17:04:38 10° SW 17:10:58 28° SSE 17:17:25 10° ESE daylight
07 Aug - 18:57:43 10° WSW 19:04:29 33° S 19:11:16 10° ESE daylight
07 Aug - 20:52:01 10° WSW 20:57:56 23° SSW 21:03:45 10° SSE visible
08 Aug - 14:22:26 10° SSE 14:24:11 11° SSE 14:25:56 10° SE daylight
08 Aug - 16:11:20 10° SW 16:17:15 25° SSE 16:23:19 10° ESE daylight
08 Aug - 18:03:59 10° WSW 18:10:42 33° S 18:17:30 10° ESE daylight
08 Aug - 19:57:54 10° WSW 20:04:12 27° SSW 20:10:29 10° SE visible
08 Aug - 21:54:04 10° SW 21:57:24 13° SSW 22:00:44 10° S visible
09 Aug - 15:18:16 10° SSW 15:23:35 21° SSE 15:29:04 10° ESE daylight
09 Aug - 17:10:22 10° SW 17:16:56 32° S 17:23:39 10° ESE daylight
09 Aug - 19:03:56 10° WSW 19:10:28 30° S 19:17:01 10° SE daylight
09 Aug - 20:59:04 10° WSW 21:03:47 17° SSW 21:08:27 10° SSE visible
10 Aug - 14:25:31 10° SSW 14:29:58 17° SSE 14:34:33 10° ESE daylight
10 Aug - 16:16:53 10° SW 16:23:11 30° S 16:29:42 10° ESE daylight
10 Aug - 18:10:07 10° WSW 18:16:42 31° S 18:23:25 10° SE daylight
10 Aug - 20:04:37 10° WSW 20:10:06 21° SSW 20:15:35 10° SSE visible
